Regional Weather Roundup
Issued by NWS

Home | Current Version | Previous Version | Graphics & Text | Print | Product List | Glossary Off
Versions: 1 2 3 4 5 6 7 8 9 10 11 12 13 14 15 16 17 18 19 20 21 22 23 24 25 26 27 28 29 30 31 32 33 34 35 36 37 38 39 40 41 42 43 44 45 46 47 48 49 50

000
ASUS43 KLOT 211208
RWRIL

ILLINOIS REGIONAL WEATHER ROUNDUP
NATIONAL WEATHER SERVICE CHICAGO/ROMEOVILLE IL
600 AM CST TUE NOV 21 2017

NOTE: "FAIR" INDICATES FEW OR NO CLOUDS BELOW 12,000 FEET WITH NO
SIGNIFICANT WEATHER AND/OR OBSTRUCTIONS TO VISIBILITY.

* THESE STATIONS ARE NOT UNDER NWS QUALITY CONTROL. THEY ALSO MAY NOT
  REPORT WEATHER SUCH AS PRECIPITATION OR FOG.

ILZ001-002-007-009-015-016-024-211300-
NORTHWEST ILLINOIS

CITY           SKY/WX    TMP DP  RH WIND       PRES   REMARKS
MOLINE         CLOUDY    44  31  60 W8        29.72R
6HR MIN TEMP:  40; 6HR MAX TEMP:  48;

STERLING*        N/A    N/A N/A N/A MISG        N/A
SAVANNA*       CLOUDY    42  31  65 W7        29.70R
$$

ILZ003-004-008-010-011-017-018-211300-
NORTH CENTRAL ILLINOIS

CITY           SKY/WX    TMP DP  RH WIND       PRES   REMARKS
ROCKFORD       CLOUDY    43  32  65 SW9       29.67S
6HR MIN TEMP:  43; 6HR MAX TEMP:  47;

FREEPORT*      MOCLDY    40  32  73 SW9       29.68R
ROCHELLE*      CLOUDY    39  33  77 SW3       29.68S
DE KALB*       MOCLDY    34  32  91 S8        29.68R WCI  28
PERU*          PTCLDY    40  30  69 SW10      29.72R
$$

ILZ005-006-012>014-019>023-211300-
NORTHEAST ILLINOIS

CITY           SKY/WX    TMP DP  RH WIND       PRES   REMARKS
CHICAGO-OHARE  CLOUDY    42  31  64 SW12G23   29.66F
6HR MIN TEMP:  42; 6HR MAX TEMP:  44;

CHICAGO-MIDWAY MOCLDY    43  32  65 SW12      29.68F
6HR MIN TEMP:  42; 6HR MAX TEMP:  44;

AURORA         PTCLDY    39  32  76 S13       29.69R WCI  31
6HR MIN TEMP:  39; 6HR MAX TEMP:  44;

LANSING*       PTCLDY    38  33  82 SW12      29.71F WCI  30
JOLIET*        PTCLDY    41  33  72 SW8       29.71S
WAUKEGAN       CLOUDY    43  32  65 SW15G21   29.63R
6HR MIN TEMP:  43; 6HR MAX TEMP:  46;

DUPAGE AIRPORT PTCLDY    41  33  73 SW16      29.67S
6HR MIN TEMP:  40; 6HR MAX TEMP:  44;

KANKAKEE*      CLEAR     38  31  74 SW15G21   29.75S WCI  30
WHEELING       PTCLDY    45  32  60 SW9G17    29.67S
6HR MIN TEMP:  44; 6HR MAX TEMP:  45;

MORRIS*        CLEAR     39  32  76 SW12      29.70F WCI  31
ROMEOVILLE*    PTCLDY    39  32  76 SW9       29.71S WCI  33
NORTHERLY ISL    N/A     43  31  63 SE8         N/A
$$

LMZ740>746-211300-
SOUTHERN LAKE MICHIGAN

STATION/POSITION SKY/WX   TEMP    WIND        PRES    VSBY  WAVE
                          AIR SEA DIR/SP/G                  HT/PER
                          (F)     (DEG/KT/KT) (MB)    (MI)  (FT/S)
SOUTHERN BUOY              46 48  250/ 25/ 31 1002.6          8/ 7
HARRISON CRIB              46     230/ 22/ 26   N/A
BURNHAM HARBOR             43     140/  7/ 10   N/A
CALUMET HARBOR             42     200/ 10/ 16 1004.8F
BURNS HARBOR               43     210/ 17/ 26 1005.8F
MICHIGAN CITY              43     190/ 17/ 18   N/A
$$

ILZ025>027-034>036-040-047-049-050-058-095>099-211300-
WEST-CENTRAL ILLINOIS

CITY           SKY/WX    TMP DP  RH WIND       PRES   REMARKS
QUINCY         MOCLDY    41  31  67 SW10      29.77R
GALESBURG*     CLOUDY    39  33  78 SW6       29.75R WCI  35
MACOMB*        PTCLDY    41  33  72 SW10      29.77R
JACKSONVILLE*  PTCLDY    41  30  66 S10       29.78R
PITTSFIELD*    MOCLDY    45  32  60 SW7       29.79R
$$

ILZ028>032-037-038-041>044-048-051>054-059>061-211300-
CENTRAL ILLINOIS

CITY           SKY/WX    TMP DP  RH WIND       PRES   REMARKS
PONTIAC        CLEAR     40  33  76 SW17      29.73F
BLOOMINGTON    PTCLDY    37  31  78 SW16      29.76F WCI  28
DECATUR        PTCLDY    39  30  70 SW13      29.81S WCI  31
PEORIA         CLOUDY    36  32  85 SW7       29.75S WCI  30
6HR MIN TEMP:  35; 6HR MAX TEMP:  44;

LACON*         CLEAR     41  32  69 SW9       29.73R
LINCOLN*       PTCLDY    38  33  79 S6        29.77F WCI  34
SPRINGFIELD    CLOUDY    41  31  67 S12       29.79S
6HR MIN TEMP:  41; 6HR MAX TEMP:  45;

TAYLORVILLE    PTCLDY    37  30  75 S12       29.81S WCI  30
6HR MIN TEMP:  37; 6HR MAX TEMP:  41;

$$

ILZ033-039-045-046-055>057-062-063-211300-
EAST-CENTRAL ILLINOIS

CITY           SKY/WX    TMP DP  RH WIND       PRES   REMARKS
CHAMPAIGN      CLEAR     37  30  75 S17       29.80F WCI  27
DANVILLE*      CLEAR     38  29  72 SW14G23   29.78F WCI  29
RANTOUL*       CLEAR     40  32  74 SW12      29.79S
MATTOON        CLEAR     38  30  73 S10       29.82F WCI  31
PARIS*         CLEAR     39  30  70 S15G22    29.85S WCI  31
$$

ILZ079-100>102-211300-
SOUTHWEST ILLINOIS

CITY           SKY/WX    TMP DP  RH WIND       PRES   REMARKS
ALTON          PTCLDY    39  32  75 S10       29.84R WCI  32
BELLEVILLE     PTCLDY    40  29  63 SW8       29.85S
CAHOKIA*       MOCLDY    41  29  62 S6        29.84F
SPARTA*        CLEAR     39  29  68 S14       29.89F WCI  31
$$

ILZ064>066-069>071-074>076-080>082-084>086-088>090-092>094-211300-
SOUTH-CENTRAL ILLINOIS

CITY           SKY/WX    TMP DP  RH WIND       PRES   REMARKS
CARBONDALE     CLEAR     39  30  70 S10       29.93F WCI  32
6HR MIN TEMP:  39; 6HR MAX TEMP:  43;

CAIRO*         CLEAR     37  30  73 S8        29.99R WCI  31
EFFINGHAM*     CLEAR     41  30  65 S7        29.88S
MARION         CLEAR     38  30  73 S9        29.95S WCI  32
MT. VERNON     CLEAR     38  29  70 S8        29.91S WCI  32
CENTRALIA*     CLEAR     42  31  66 S17G23    29.87F
SALEM*         CLEAR     42  29  60 S10       29.87F
METROPOLIS*    CLEAR     39  29  67 S7        30.00R WCI  34
$$

ILZ067-068-072-073-078-083-087-091-211300-
SOUTHEAST ILLINOIS

CITY           SKY/WX    TMP DP  RH WIND       PRES   REMARKS
LAWRENCEVILLE  CLOUDY    36  29  75 S6        29.92S WCI  31
FLORA*         CLOUDY    41  30  64 S16       29.89F
FAIRFIELD*     CLEAR     37  30  75 CALM      29.92R
HARRISBURG*    CLEAR     40  30  68 SW8       29.96S
ROBINSON*      PTCLDY    40  29  64 S12       29.90S
CARMI*         CLEAR     36  30  80 S10       29.94S WCI  28
$$

ABBREVIATIONS USED IN REMARKS
   TC - TEMPERATURE IN CELSIUS
  WCI - WIND CHILL INDEX
   HX - HEAT INDEX
  VSB - VISIBILITY
$$





USA.gov is the U.S. government's official web portal to all federal, state and local government web resources and services.